• In Uzbekistan
  • List of Countries
  • For 7 days
  • Water Temperature
  • Satellite Maps
  • Weather Map
  • Weather Widgets
  • user-avatar
    Login

    Hourly Weather Córdoba

    Today, 19 January, Friday

    Time Temperature Precipitation Wind Pressure Humidity
    00:00 +24°C° 0 mm 2 mps 724 mmHg 41%
    01:00 +23°C° 0 mm 2 mps 724 mmHg 41%
    02:00 +23°C° 0 mm 2 mps 724 mmHg 42%
    03:00 +23°C° 0 mm 2 mps 724 mmHg 42%
    04:00 +23°C° 0 mm 2 mps 724 mmHg 42%
    05:00 +23°C° 0 mm 2 mps 724 mmHg 42%
    06:00 +25°C° 0 mm 2 mps 725 mmHg 40%
    07:00 +27°C° 0 mm 2 mps 725 mmHg 37%
    08:00 +29°C° 0 mm 2 mps 726 mmHg 34%
    09:00 +31°C° 0 mm 2 mps 726 mmHg 31%
    10:00 +32°C° 0 mm 2 mps 726 mmHg 28%
    11:00 +35°C° 0 mm 3 mps 726 mmHg 24%
    12:00 +36°C° 0 mm 3 mps 725 mmHg 22%
    13:00 +36°C° 0 mm 3 mps 725 mmHg 21%
    14:00 +37°C° 0 mm 4 mps 724 mmHg 19%
    15:00 +37°C° 0 mm 4 mps 724 mmHg 20%
    16:00 +36°C° 0 mm 3 mps 723 mmHg 20%
    17:00 +36°C° 0 mm 3 mps 722 mmHg 21%
    18:00 +33°C° 0 mm 3 mps 722 mmHg 24%
    19:00 +30°C° 0 mm 3 mps 722 mmHg 28%
    20:00 +27°C° 0 mm 3 mps 722 mmHg 32%
    21:00 +26°C° 0 mm 2 mps 722 mmHg 33%
    22:00 +26°C° 0 mm 2 mps 723 mmHg 34%
    23:00 +25°C° 0 mm 2 mps 723 mmHg 35%

    Tomorrow, 20 January, Saturday

    Time Temperature Precipitation Wind Pressure Humidity
    00:00 +25°C° 0 mm 2 mps 722 mmHg 35%
    01:00 +25°C° 0 mm 2 mps 722 mmHg 35%
    02:00 +24°C° 0 mm 2 mps 721 mmHg 35%
    03:00 +24°C° 0 mm 2 mps 721 mmHg 36%
    04:00 +24°C° 0 mm 2 mps 721 mmHg 37%
    05:00 +24°C° 0 mm 2 mps 721 mmHg 38%
    06:00 +26°C° 0 mm 2 mps 722 mmHg 36%
    07:00 +28°C° 0 mm 2 mps 722 mmHg 34%
    08:00 +30°C° 0 mm 2 mps 723 mmHg 32%
    09:00 +31°C° 0 mm 2 mps 723 mmHg 30%
    10:00 +34°C° 0 mm 3 mps 723 mmHg 28%
    11:00 +35°C° 0 mm 4 mps 723 mmHg 26%
    12:00 +35°C° 0 mm 4 mps 722 mmHg 25%
    13:00 +36°C° 0 mm 5 mps 722 mmHg 25%
    14:00 +36°C° 0 mm 5 mps 721 mmHg 24%
    15:00 +36°C° 0 mm 5 mps 721 mmHg 25%
    16:00 +35°C° 0 mm 4 mps 720 mmHg 25%
    17:00 +35°C° 0 mm 4 mps 720 mmHg 25%
    18:00 +31°C° 0.2 mm 3 mps 720 mmHg 32%
    19:00 +29°C° 0.2 mm 3 mps 720 mmHg 38%
    20:00 +26°C° 0.2 mm 2 mps 720 mmHg 45%
    21:00 +26°C° 0.1 mm 2 mps 720 mmHg 47%
    22:00 +25°C° 0.1 mm 2 mps 720 mmHg 49%
    23:00 +24°C° 0.1 mm 2 mps 721 mmHg 50%

    Day after tomorrow, 21 January, Sunday

    Time Temperature Precipitation Wind Pressure Humidity
    00:00 +24°C° 0 mm 2 mps 720 mmHg 51%
    01:00 +24°C° 0 mm 1 mps 720 mmHg 52%
    02:00 +23°C° 0 mm 1 mps 720 mmHg 53%
    03:00 +23°C° 0 mm 1 mps 719 mmHg 54%
    04:00 +23°C° 0 mm 1 mps 719 mmHg 55%
    05:00 +22°C° 0 mm 1 mps 719 mmHg 56%
    06:00 +24°C° 0 mm 1 mps 720 mmHg 51%
    07:00 +27°C° 0 mm 1 mps 720 mmHg 46%
    08:00 +29°C° 0 mm 1 mps 720 mmHg 41%
    09:00 +31°C° 0 mm 2 mps 720 mmHg 36%
    10:00 +33°C° 0 mm 3 mps 720 mmHg 31%
    11:00 +35°C° 0 mm 4 mps 720 mmHg 27%
    12:00 +36°C° 0 mm 4 mps 720 mmHg 25%
    13:00 +37°C° 0 mm 5 mps 719 mmHg 24%
    14:00 +37°C° 0 mm 5 mps 719 mmHg 23%
    15:00 +37°C° 0 mm 5 mps 718 mmHg 24%
    16:00 +37°C° 0 mm 4 mps 718 mmHg 24%
    17:00 +36°C° 0 mm 4 mps 717 mmHg 25%
    18:00 +34°C° 0 mm 3 mps 717 mmHg 30%
    19:00 +30°C° 0 mm 2 mps 717 mmHg 35%
    20:00 +28°C° 0 mm 2 mps 717 mmHg 40%
    21:00 +27°C° 0 mm 2 mps 717 mmHg 42%
    22:00 +27°C° 0 mm 2 mps 718 mmHg 44%
    23:00 +26°C° 0 mm 2 mps 718 mmHg 46%

    22 January, Monday

    Time Temperature Precipitation Wind Pressure Humidity
    00:00 +25°C° 0 mm 2 mps 718 mmHg 48%
    01:00 +25°C° 0 mm 2 mps 717 mmHg 49%
    02:00 +24°C° 0 mm 1 mps 717 mmHg 51%
    03:00 +24°C° 0 mm 1 mps 717 mmHg 53%
    04:00 +23°C° 0 mm 1 mps 717 mmHg 55%
    05:00 +23°C° 0 mm 1 mps 717 mmHg 56%
    06:00 +25°C° 0.1 mm 1 mps 717 mmHg 53%
    07:00 +27°C° 0.1 mm 1 mps 718 mmHg 49%
    08:00 +29°C° 0.1 mm 1 mps 718 mmHg 45%
    09:00 +31°C° 0.1 mm 2 mps 718 mmHg 40%
    10:00 +34°C° 0.1 mm 2 mps 718 mmHg 35%
    11:00 +36°C° 0.1 mm 2 mps 718 mmHg 30%
    12:00 +37°C° 0 mm 2 mps 717 mmHg 29%
    13:00 +37°C° 0 mm 2 mps 717 mmHg 27%
    14:00 +38°C° 0 mm 2 mps 716 mmHg 25%
    15:00 +38°C° 0 mm 2 mps 716 mmHg 26%
    16:00 +38°C° 0 mm 2 mps 716 mmHg 26%
    17:00 +38°C° 0 mm 2 mps 715 mmHg 26%
    18:00 +35°C° 0 mm 2 mps 716 mmHg 34%
    19:00 +31°C° 0 mm 3 mps 716 mmHg 42%
    20:00 +28°C° 0 mm 3 mps 716 mmHg 50%
    21:00 +27°C° 0.2 mm 3 mps 716 mmHg 54%
    22:00 +26°C° 0.2 mm 2 mps 717 mmHg 59%
    23:00 +25°C° 0.2 mm 2 mps 717 mmHg 63%

    23 January, Tuesday

    Time Temperature Precipitation Wind Pressure Humidity
    00:00 +24°C° 0.2 mm 2 mps 717 mmHg 64%
    01:00 +24°C° 0.2 mm 2 mps 717 mmHg 66%
    02:00 +24°C° 0.2 mm 2 mps 717 mmHg 67%
    03:00 +23°C° 0.2 mm 2 mps 717 mmHg 67%
    04:00 +23°C° 0.2 mm 1 mps 717 mmHg 66%
    05:00 +23°C° 0.2 mm 1 mps 717 mmHg 66%
    06:00 +26°C° 0 mm 1 mps 717 mmHg 59%
    07:00 +28°C° 0 mm 1 mps 718 mmHg 52%
    08:00 +30°C° 0 mm 1 mps 718 mmHg 46%
    09:00 +32°C° 0 mm 1 mps 718 mmHg 40%
    10:00 +34°C° 0 mm 1 mps 718 mmHg 34%
    11:00 +37°C° 0 mm 2 mps 718 mmHg 27%
    12:00 +38°C° 0 mm 2 mps 717 mmHg 25%
    13:00 +39°C° 0 mm 3 mps 717 mmHg 23%
    14:00 +40°C° 0 mm 3 mps 716 mmHg 20%
    15:00 +39°C° 0.1 mm 3 mps 716 mmHg 23%
    16:00 +38°C° 0.1 mm 3 mps 716 mmHg 25%
    17:00 +37°C° 0.1 mm 3 mps 715 mmHg 28%
    18:00 +35°C° 0.4 mm 3 mps 715 mmHg 36%
    19:00 +32°C° 0.4 mm 4 mps 716 mmHg 44%
    20:00 +28°C° 0.4 mm 4 mps 716 mmHg 51%
    21:00 +27°C° 0.2 mm 4 mps 716 mmHg 53%
    22:00 +26°C° 0.2 mm 3 mps 717 mmHg 54%
    23:00 +26°C° 0.2 mm 3 mps 717 mmHg 55%

    24 January, Wednesday

    Time Temperature Precipitation Wind Pressure Humidity
    00:00 +26°C° 0 mm 2 mps 717 mmHg 54%
    01:00 +26°C° 0 mm 2 mps 717 mmHg 53%
    02:00 +26°C° 0 mm 1 mps 717 mmHg 52%
    03:00 +25°C° 0.2 mm 1 mps 717 mmHg 54%
    04:00 +25°C° 0.2 mm 1 mps 717 mmHg 56%
    05:00 +24°C° 0.2 mm 1 mps 717 mmHg 58%
    06:00 +26°C° 0.4 mm 2 mps 718 mmHg 54%
    07:00 +28°C° 0.4 mm 2 mps 718 mmHg 51%
    08:00 +29°C° 0.4 mm 2 mps 719 mmHg 47%
    09:00 +33°C° 0 mm 3 mps 719 mmHg 41%
    10:00 +35°C° 0 mm 3 mps 719 mmHg 35%
    11:00 +37°C° 0 mm 3 mps 719 mmHg 28%
    12:00 +38°C° 0 mm 3 mps 719 mmHg 27%
    13:00 +40°C° 0 mm 4 mps 719 mmHg 25%
    14:00 +41°C° 0 mm 4 mps 718 mmHg 23%
    15:00 +40°C° 0 mm 4 mps 718 mmHg 24%
    16:00 +39°C° 0 mm 5 mps 718 mmHg 25%
    17:00 +39°C° 0 mm 5 mps 718 mmHg 26%
    18:00 +36°C° 0 mm 5 mps 718 mmHg 30%
    19:00 +34°C° 0 mm 6 mps 719 mmHg 34%
    20:00 +32°C° 0 mm 6 mps 719 mmHg 38%
    21:00 +29°C° 0 mm 6 mps 720 mmHg 45%
    22:00 +28°C° 0 mm 7 mps 721 mmHg 52%
    23:00 +26°C° 0 mm 7 mps 722 mmHg 59%
    Show more